User: anonymous   Login
Location: Fort Frances
(48.6170°N, 93.4170°W)
Time: 22:40:33
(UTC-06:00)
Language:

CZ-2C R/B - Orbit

View from above orbital plane
View from above orbital plane
View from above satellite
View from above satellite

Ground track
Ground track

The orbit data is extracted from the following two-line orbital elements,

1 36089U 09061B   17018.53335734  .00000100  00000-0  35879-4 0  9999
2 36089  98.0502  26.9977 0082825 145.9023 327.7984 14.49634257380029
Epoch (UTC): 18 January 2017 12:48:02
Eccentricity: 0.0082825
inclination: 98.0502°
perigee height: 668 km
apogee height: 785 km
right ascension of ascending node: 26.9977°
argument of perigee: 145.9023°
revolutions per day: 14.49634257
mean anomaly at epoch: 327.7984°
orbit number at epoch: 38002

The dashed part of the orbit path shows where the satellite is in the earth's shadow,  

DLR